Location: Risskov
(56.1972°N, 10.2480°E)
Time: 12:53:41
(UTC+00:00)

Cosmos 2344 - Pass Details

Date: 05 July 2020
Orbit: 1249 x 2993 km, 63.3° (Epoch: 06 August)

Event Time Altitude Azimuth Distance (km) Brightness Sun altitude
Exits shadow 22:16:04 - 194° (SSW) 3,552 5.4 -9.8°
Reaches altitude 10° 22:17:01 10° 191° (SSW) 3,226 5.2 -9.9°
Maximum altitude 22:23:58 45° 122° (ESE) 1,703 4.0 -10.1°
Drops below altitude 10° 22:31:39 10° 53° (NE) 3,575 6.3 -10.4°
Sets 22:34:59 0° 48° (NE) 4,736 7.0 -10.5°
